Regional Weather Roundup
Issued by NWS

Home | Current Version | Previous Version | Graphics & Text | Print | Product List | Glossary On
Versions: 1 2 3 4 5 6 7 8 9 10 11 12 13 14 15 16 17 18 19 20 21 22 23 24 25 26 27 28 29 30 31 32 33 34 35 36 37 38 39 40 41 42 43 44 45 46 47 48 49 50
000
ASUS43 KLOT 291303
RWRIL

ILLINOIS REGIONAL WEATHER ROUNDUP
NATIONAL WEATHER SERVICE CHICAGO/ROMEOVILLE IL
800 AM CDT MON AUG 29 2016

NOTE: "FAIR" INDICATES FEW OR NO CLOUDS BELOW 12,000 FEET WITH NO
SIGNIFICANT WEATHER AND/OR OBSTRUCTIONS TO VISIBILITY.

* THESE STATIONS ARE NOT UNDER NWS QUALITY CONTROL. THEY ALSO MAY NOT
  REPORT WEATHER SUCH AS PRECIPITATION OR FOG.

ILZ001-002-007-009-015-016-024-291400-
NORTHWEST ILLINOIS

CITY           SKY/WX    TMP DP  RH WIND       PRES   REMARKS
MOLINE         FOG       70  68  93 E6        30.21R VSB 1/2
STERLING*      CLOUDY    71  69  93 E7        30.23R FOG
SAVANNA*       CLOUDY    70  68  93 E3        30.22S FOG
$$

ILZ003-004-008-010-011-017-018-291400-
NORTH CENTRAL ILLINOIS

CITY           SKY/WX    TMP DP  RH WIND       PRES   REMARKS
ROCKFORD       CLOUDY    71  68  90 E6        30.24S
FREEPORT*      CLOUDY    68  67  98 E6        30.25S FOG
ROCHELLE*      SUNNY     70  68  94 E5        30.24S FOG
$$

ILZ005-006-012>014-019>023-291400-
NORTHEAST ILLINOIS

CITY           SKY/WX    TMP DP  RH WIND       PRES   REMARKS
CHICAGO-OHARE  MOSUNNY   74  69  85 NE6       30.23S
CHICAGO-MIDWAY MOSUNNY   77  68  73 NE7       30.23R
AURORA         SUNNY     73  69  87 NE8       30.23S
LANSING*       MOSUNNY   75  74  96 E8        30.24R
JOLIET*        SUNNY     75  72  90 NE5       30.23S
WAUKEGAN       SUNNY     72  69  90 NE6       30.24R
DUPAGE AIRPORT SUNNY     73  69  87 E6        30.23S
KANKAKEE*      SUNNY     71  70  94 CALM      30.24R
WHEELING       SUNNY     74  69  85 NE5       30.24S
MORRIS*        SUNNY     71  70  95 E3        30.21F FOG
ROMEOVILLE*    SUNNY     73  72  97 E7        30.23S
$$

LMZ740>746-291400-
SOUTHERN LAKE MICHIGAN

STATION/POSITION SKY/WX   TEMP    WIND        PRES    VSBY  WAVE
                          AIR SEA DIR/SP/G                  HT/PER
                          (F)     (DEG/KT/KT) (MB)    (MI)  (FT/S)
SOUTHERN BUOY              73 75   70/  8/  8 1023.4          0
WILMETTE HARBOR            72 71   60/  4/  4   N/A           1/ 3
HARRISON CRIB              74      30/  9/  9   N/A
BURNHAM HARBOR             75     360/  5/  6   N/A
CALUMET HARBOR             73      10/  6/ 10 1023.0R
BURNS HARBOR               71      80/  7/ 10 1024.0R
MICHIGAN CITY              70      60/  7/  8   N/A
MICHIGAN CITY 6N           74 76   70/ 10/ 12   N/A           1/ 3
ST. JOSEPH                 71 75   60/  8/ 10 1023.6R         1
$$

ILZ025>027-034>036-040-047-049-050-058-095>099-291400-
WEST-CENTRAL ILLINOIS

CITY           SKY/WX    TMP DP  RH WIND       PRES   REMARKS
QUINCY         SUNNY     73  73 100 E7        30.19R
GALESBURG*     CLOUDY    71  70  97 CALM      30.22R
MACOMB*        SUNNY     70  70  99 E6        30.23R FOG
JACKSONVILLE*  SUNNY     73  72  96 CALM      30.20R FOG
PITTSFIELD*    PTSUNNY   72  72  99 CALM      30.21R FOG
$$

ILZ028>032-037-038-041>044-048-051>054-059>061-291400-
CENTRAL ILLINOIS

CITY           SKY/WX    TMP DP  RH WIND       PRES   REMARKS
PONTIAC        MOSUNNY   72  72  98 E5        30.23R
BLOOMINGTON    SUNNY     71  68  90 NE3       30.24R
DECATUR        SUNNY     74  71  91 E5        30.22R
PEORIA         SUNNY     71  71 100 NE7       30.21R
LACON*         PTSUNNY   70  69  96 CALM      30.21S FOG
LINCOLN*       SUNNY     74  72  95 CALM      30.21R
SPRINGFIELD    SUNNY     75  72  90 E3        30.21R
TAYLORVILLE    SUNNY     74  71  89 CALM      30.21R
$$

ILZ033-039-045-046-055>057-062-063-291400-
EAST-CENTRAL ILLINOIS

CITY           SKY/WX    TMP DP  RH WIND       PRES   REMARKS
CHAMPAIGN      SUNNY     74  70  87 E5        30.23R
RANTOUL*       MOSUNNY   74  72  92 NE5       30.23R
MATTOON        SUNNY     73  68  84 E7        30.21R
PARIS*         SUNNY     73  72  98 CALM      30.24R
$$

ILZ079-100>102-291400-
SOUTHWEST ILLINOIS

CITY           SKY/WX    TMP DP  RH WIND       PRES   REMARKS
ALTON          SUNNY     72  70  94 CALM      30.19R
BELLEVILLE     SUNNY     75  74  99 E5        30.18R
CAHOKIA*       SUNNY     77  73  87 SE6       30.19R
SPARTA*        PTSUNNY   73  72  97 E5        30.20R FOG
$$

ILZ064>066-069>071-074>076-080>082-084>086-088>090-092>094-291400-
SOUTH-CENTRAL ILLINOIS

CITY           SKY/WX    TMP DP  RH WIND       PRES   REMARKS
CARBONDALE     MOSUNNY   76  74  93 CALM      30.17R FOG
EFFINGHAM*     SUNNY     73  72  95 E5        30.22R
MARION         SUNNY     77  77 100 E6        30.18R
MT. VERNON     SUNNY     73  66  78 E3        30.20R
CENTRALIA*     SUNNY     74  72  92 CALM      30.19R
SALEM*         SUNNY     75  70  84 CALM      30.20R
METROPOLIS*    SUNNY     76  72  89 CALM      30.17R
$$

ILZ067-068-072-073-078-083-087-091-291400-
SOUTHEAST ILLINOIS

CITY           SKY/WX    TMP DP  RH WIND       PRES   REMARKS
LAWRENCEVILLE  SUNNY     73  71  93 E6        30.21R
FLORA*         SUNNY     74  71  88 NE3       30.21R
FAIRFIELD*       N/A     74  71  89 CALM      30.18R
HARRISBURG*    SUNNY     75  73  93 E3        30.18R
ROBINSON*      SUNNY     71  71  98 E7        30.23R
CARMI*         SUNNY     74  73  94 CALM      30.19R
$$

ABBREVIATIONS USED IN REMARKS
   TC - TEMPERATURE IN CELSIUS
  WCI - WIND CHILL INDEX
   HX - HEAT INDEX
  VSB - VISIBILITY
$$





USA.gov is the U.S. government's official web portal to all federal, state and local government web resources and services.